Location: Guayaquil
(2.1667°S, 79.9000°W)
Time: 16:29:52
(UTC-05:00)

Hubble Space Telescope - Visible Passes

Search period start: 28 November 2021 00:00
Search period end: 08 December 2021 00:00
Orbit: 535 x 538 km, 28.5° (Epoch: 28 November)

Date Brightness Start Highest point End Pass type
(mag) Time Alt. Az. Time Alt. Az. Time Alt. Az.
01 Dec 3.8 20:42:19 10° SW 20:42:51 13° SSW 20:42:51 13° SSW visible
02 Dec 3.2 20:30:57 10° SW 20:32:21 20° SW 20:32:21 20° SW visible
03 Dec 3.2 18:40:53 10° S 18:42:28 12° SSE 18:44:02 10° SE visible
03 Dec 2.6 20:19:40 10° SW 20:21:52 30° SW 20:21:52 30° SW visible
04 Dec 1.7 20:08:28 10° WSW 20:11:26 46° WSW 20:11:26 46° WSW visible
05 Dec 1.2 19:57:22 10° WSW 20:01:01 57° WNW 20:01:01 57° WNW visible
06 Dec 1.4 19:46:22 10° WSW 19:50:18 43° NNW 19:50:38 42° NNW visible
07 Dec 2.0 19:35:29 10° W 19:39:09 30° NNW 19:40:16 26° N visible
